[[{"header":{"parameterUnit":"m.s-1","parameterCategory":1,"la1":30.2991,"la2":30.254,"lo1":-89.0895,"lo2":-89.0444,"dy":0.0017,"dx":0.0017,"nx":28,"ny":28,"refTime":"2024-04-28T09:00:00:Z","depth":0,"parameterNumber":2,"parameterNumberName":"U-component_of_WINDS"},"data":[0,0,0,0,0,0,0,0,0,0,0,0,0,0,0,0,0,0,0,0,0,0,0,0,0,0,0,0,0,0,0,0,0,0,0,0,0,0,0,0,0,0,0,0,0,0,0,0,0,0,0,0,0,0,0,0,0,0,-7.1861,-7.1862,0,-7.1988,-7.1989,-7.1991,-7.1961,-7.1959,-7.1956,-7.1954,-7.208,-7.2086,-7.2091,0,0,0,0,0,0,0,0,0,0,0,0,0,-7.159,-7.1595,-7.1861,-7.1862,-7.1864,-7.1988,-7.1989,-7.1991,-7.1962,-7.1959,-7.1956,-7.1953,-7.2079,-7.2085,-7.2092,0,0,0,0,0,0,0,0,0,0,0,0,0,-7.1711,-7.1596,-7.186,-7.1864,-7.1866,-7.1987,-7.199,-7.1992,-7.1962,-7.1959,-7.1955,-7.1952,-7.2076,-7.2085,-7.2093,-7.2217,0,0,-7.2119,-7.2122,0,0,0,0,0,0,0,0,-7.1704,-7.1721,-7.1862,-7.1864,-7.1866,-7.1955,-7.194,-7.2067,-7.1963,-7.1926,-7.1954,-7.195,-7.2041,-7.2052,-7.2084,-7.2223,-7.2229,-7.2119,-7.2124,-7.2128,-7.213,0,0,0,0,0,0,0,-7.1696,-7.1715,-7.1911,-7.1864,-7.1867,-7.1859,-7.1872,-7.1964,-7.2002,-7.1929,-7.1927,-7.1942,-7.2042,-7.2076,-7.2087,-7.223,-7.2119,-7.2127,-7.2132,-7.2135,-7.2478,-7.2481,0,0,0,0,0,0,-7.1686,-7.1709,-7.1907,-7.1915,-7.1775,-7.1867,-7.1881,-7.193,-7.2001,-7.2008,-7.1945,-7.1941,-7.2063,-7.2077,-7.2091,-7.224,-7.2128,-7.2136,-7.2141,-7.2474,-7.2479,-7.2483,0,0,0,0,0,0,-7.168,-7.1704,-7.1902,-7.1811,-7.1836,-7.1875,-7.193,-7.1935,-7.1969,-7.2014,-7.202,-7.1973,-7.2061,-7.2079,-7.2186,-7.2244,-7.214,-7.2147,-7.2469,-7.2475,-7.2481,-7.254,0,0,0,0,0,0,-7.1673,-7.1702,-7.175,-7.1813,-7.1841,-7.1995,-7.1934,-7.194,-7.1984,-7.1979,-7.2042,-7.2049,-7.206,-7.2174,-7.2195,-7.2254,-7.2154,-7.2464,-7.2472,-7.2479,-7.2532,-7.2547,-7.2559,0,0,0,0,0,-7.1663,-7.1761,-7.1753,-7.1777,-7.1902,-7.1999,-7.2015,-7.2026,-7.1989,-7.2037,-7.2066,-7.2047,-7.2236,-7.2185,-7.2208,-7.2271,-7.246,-7.2469,-7.2478,-7.2526,-7.2544,-7.2559,0,0,0,0,0,0,-7.1702,-7.1769,-7.1761,-7.1882,-7.1935,-7.1994,-7.2054,-7.2045,-7.2109,-7.2101,-7.2112,-7.2127,-7.2235,-7.2264,-7.2207,-7.2395,-7.2342,-7.2356,-7.2371,-7.2388,-7.2401,-7.239,-7.2161,0,0,0,0,0,-7.1726,-7.18,-7.1854,-7.1956,-7.1983,-7.2015,-7.2057,-7.2062,-7.2117,-7.2139,-7.2176,-7.2229,-7.23,-7.2346,-7.2414,-7.2538,-7.2551,-7.2593,-7.2606,-7.2617,-7.2628,-7.2694,-7.2713,-7.2513,-7.2513,-7.2513,0,0,-7.1773,-7.1819,-7.1865,-7.1965,-7.2006,-7.2082,-7.2033,-7.2115,-7.2171,-7.2151,-7.2253,-7.2283,-7.2343,-7.2459,-7.2512,-7.2486,-7.2687,-7.2629,-7.2637,-7.2642,-7.2705,-7.2724,-7.2741,-7.2519,-7.2518,-7.2517,0,0,-7.1898,-7.1941,-7.203,-7.2073,-7.2138,-7.2159,-7.2181,-7.2242,-7.226,-7.2365,-7.2351,-7.2418,-7.2541,-7.2583,-7.2621,-7.2766,-7.275,-7.2788,-7.2856,-7.292,-7.2936,-7.295,-7.2999,-7.3016,-7.28,-7.28,-7.28,0,-7.1948,-7.2062,-7.2076,-7.216,-7.2203,-7.2192,-7.2281,-7.2322,-7.2406,-7.2435,-7.2407,-7.2561,-7.2601,-7.2726,-7.2761,-7.2794,-7.2817,-7.2778,-7.2933,-7.2947,-7.296,-7.3007,-7.3025,-7.2804,-7.2803,-7.2803,-7.2802,0,-7.2119,-7.2199,-7.2263,-7.2345,-7.2396,-7.2482,-7.2509,-7.256,-7.2561,-7.2585,-7.2691,-7.2739,-7.2816,-7.2847,-7.2849,-7.2973,-7.2955,-7.293,-7.2876,-7.2983,-7.3027,-7.3045,-7.2809,-7.2808,-7.2807,-7.2806,0,0,-7.2267,-7.2359,-7.2382,-7.2418,-7.249,-7.2551,-7.2638,-7.2715,-7.2757,-7.2816,-7.2886,-7.2992,-7.297,-7.3013,-7.3021,-7.3078,-7.3186,-7.3046,-7.3047,-7.3067,-7.3323,-7.3339,-7.3359,-7.3179,-7.3182,-7.3185,-7.3317,0,-7.2396,-7.2547,-7.2564,-7.2699,-7.2772,-7.2763,-7.2838,-7.289,-7.2915,-7.298,-7.3008,-7.3082,-7.3048,-7.3074,-7.3131,-7.3161,-7.3237,-7.3152,-7.3242,-7.3245,-7.3223,-7.3383,-7.3399,-7.3522,-7.3335,-7.3338,-7.334,0,-7.2565,-7.263,-7.2772,-7.2834,-7.2865,-7.2932,-7.3004,-7.3068,-7.3126,-7.3141,-7.3191,-7.3191,-7.3278,-7.3226,-7.3346,-7.3287,-7.3326,-7.3347,-7.3352,-7.3357,-7.3295,-7.3389,-7.3561,-7.3578,-7.3368,-7.3365,-7.3363,0,-7.2655,-7.2778,-7.2879,-7.2912,-7.2987,-7.3034,-7.3068,-7.3124,-7.3169,-7.3233,-7.3262,-7.3335,-7.3374,-7.343,-7.345,-7.341,-7.3568,-7.3517,-7.358,-7.358,-7.361,-7.3607,-7.3787,-7.3642,-7.3642,-7.3641,-7.3641,0,-7.2794,-7.288,-7.292,-7.2982,-7.3079,-7.3098,-7.3193,-7.3225,-7.3275,-7.3341,-7.334,-7.3402,-7.3426,-7.3493,-7.3509,-7.3605,-7.3624,-7.3636,-7.3639,-7.3634,-7.3632,-7.3656,-7.3646,-7.3646,-7.3645,-7.3644,-7.3643,0,-7.2909,-7.2939,-7.3048,-7.3113,-7.3131,-7.3199,-7.3253,-7.3312,-7.3339,-7.3423,-7.3444,-7.3485,-7.3563,-7.359,-7.3684,-7.3695,-7.3806,-7.3803,-7.3786,-7.3785,-7.3846,-7.3838,-7.4044,-7.4071,-7.3911,-7.3913,-7.3914,0,-7.2993,-7.306,-7.3132,-7.3177,-7.3213,-7.3286,-7.3333,-7.3356,-7.3404,-7.3477,-7.3527,-7.3606,-7.3669,-7.3795,-7.3831,-7.3904,-7.3901,-7.3968,-7.3911,-7.3904,-7.3898,-7.3892,-7.3898,-7.3977,-7.3979,-7.398,-7.3981,0,-7.3139,-7.3152,-7.322,-7.3294,-7.3351,-7.341,-7.3467,-7.3504,-7.3535,-7.359,-7.3671,-7.3721,-7.3818,-7.3895,-7.397,-7.4003,-7.3997,-7.4,-7.4017,-7.4011,-7.3997,-7.4002,-7.381,-7.3993,-7.3992,-7.3991,-7.3991,-7.399,-7.324,-7.3298,-7.3358,-7.3434,-7.348,-7.3534,-7.3593,-7.3627,-7.3695,-7.3777,-7.3787,-7.3873,-7.3931,-7.4031,-7.4069,-7.4136,-7.4117,-7.4143,-7.4149,-7.4155,-7.4158,-7.399,-7.415,-7.415,-7.4149,-7.4149,-7.4149,0,-7.3383,-7.3422,-7.3492,-7.3573,-7.3633,-7.3625,-7.3688,-7.3738,-7.3815,-7.387,-7.3933,-7.4026,-7.4101,-7.4146,-7.4221,-7.4266,-7.4265,-7.4285,-7.428,-7.4287,-7.4172,-7.4147,-7.4284,-7.4284,-7.4284,-7.4284,-7.4284,-7.4284,-7.3464,-7.3562,-7.3582,-7.3703,-7.3741,-7.3826,-7.3863,-7.3913,-7.3957,-7.4061,-7.4124,-7.4153,-7.4204,-7.4283,-7.4352,-7.4363,-7.4389,-7.441,-7.4419,-7.431,-7.4295,-7.4282,-7.4259,-7.4417,-7.4417,-7.4528,-7.4529,-7.453]},{"header":{"parameterUnit":"m.s-1","parameterCategory":1,"la1":30.2991,"la2":30.254,"lo1":-89.0895,"lo2":-89.0444,"dy":0.0017,"dx":0.0017,"nx":28,"ny":28,"refTime":"2024-04-28T09:00:00:Z","depth":0,"parameterNumber":3,"parameterNumberName":"V-component_of_WINDS"},"data":[0,0,0,0,0,0,0,0,0,0,0,0,0,0,0,0,0,0,0,0,0,0,0,0,0,0,0,0,0,0,0,0,0,0,0,0,0,0,0,0,0,0,0,0,0,0,0,0,0,0,0,0,0,0,0,0,0,0,5.8547,5.8547,0,5.8592,5.8592,5.8593,5.8531,5.8529,5.8526,5.8524,5.8566,5.8569,5.8572,0,0,0,0,0,0,0,0,0,0,0,0,0,5.8404,5.8407,5.8547,5.8547,5.8548,5.8592,5.8592,5.8593,5.8531,5.8529,5.8526,5.8523,5.8565,5.8568,5.8572,0,0,0,0,0,0,0,0,0,0,0,0,0,5.8459,5.8408,5.8546,5.8522,5.8521,5.8591,5.8592,5.8593,5.8532,5.8529,5.8525,5.8522,5.8564,5.8568,5.8573,5.8668,0,0,5.8587,5.8589,0,0,0,0,0,0,0,0,5.8456,5.8464,5.8525,5.8524,5.8522,5.8552,5.8557,5.8618,5.8533,5.8527,5.8524,5.8521,5.8564,5.8568,5.8584,5.867,5.8671,5.8588,5.859,5.8593,5.8594,0,0,0,0,0,0,0,5.8452,5.8462,5.8564,5.8526,5.8525,5.8508,5.8513,5.8568,5.8563,5.8528,5.8523,5.853,5.8562,5.8579,5.8584,5.8672,5.8588,5.8592,5.8595,5.8596,5.884,5.8843,0,0,0,0,0,0,5.8452,5.8459,5.8563,5.8566,5.8481,5.8514,5.8518,5.8546,5.8563,5.8562,5.8533,5.8527,5.8573,5.8579,5.8585,5.8698,5.8592,5.8597,5.86,5.8836,5.8841,5.8845,0,0,0,0,0,0,5.8449,5.8462,5.8561,5.8511,5.8523,5.852,5.8551,5.8549,5.8566,5.8566,5.8565,5.8551,5.8571,5.8579,5.8648,5.8699,5.8599,5.8603,5.8832,5.8838,5.8843,5.8925,0,0,0,0,0,0,5.8445,5.8461,5.8498,5.8513,5.8526,5.8624,5.8554,5.8552,5.8575,5.8567,5.8583,5.8583,5.8569,5.8642,5.8653,5.8704,5.8607,5.8827,5.8835,5.8841,5.8918,5.8932,5.8945,0,0,0,0,0,5.8441,5.8518,5.85,5.8513,5.8572,5.8627,5.8635,5.8618,5.8579,5.8615,5.8616,5.8582,5.8692,5.8649,5.8662,5.8714,5.8824,5.8832,5.884,5.8911,5.893,5.8945,0,0,0,0,0,0,5.8506,5.8519,5.8499,5.8584,5.8606,5.8617,5.8662,5.8638,5.8669,5.8661,5.8637,5.8642,5.8717,5.8722,5.8675,5.8808,5.8751,5.8762,5.8801,5.8818,5.8832,5.8828,5.8611,0,0,0,0,0,5.8531,5.8576,5.8585,5.8658,5.8671,5.8665,5.8688,5.8674,5.8695,5.8703,5.8708,5.8728,5.8767,5.8793,5.8829,5.8919,5.8921,5.8961,5.8975,5.8986,5.8996,5.9045,5.9062,5.8871,5.8871,5.8871,0,0,5.8581,5.8594,5.8624,5.8672,5.8687,5.8734,5.8672,5.8724,5.8758,5.871,5.8777,5.8782,5.8803,5.8883,5.8919,5.889,5.905,5.8997,5.9006,5.9009,5.9055,5.9073,5.9089,5.8877,5.8876,5.8875,0,0,5.8697,5.8712,5.8776,5.8793,5.8817,5.8813,5.8829,5.8845,5.8847,5.8915,5.888,5.892,5.8987,5.9004,5.9021,5.9148,5.9118,5.916,5.9231,5.9279,5.9294,5.9308,5.9353,5.9369,5.917,5.917,5.917,0,5.8756,5.8827,5.8811,5.8866,5.8889,5.885,5.8914,5.8931,5.8965,5.8981,5.8949,5.9035,5.9046,5.913,5.9162,5.9177,5.9194,5.9157,5.9294,5.9307,5.9319,5.9362,5.9379,5.9175,5.9174,5.9174,5.9173,0,5.8899,5.8948,5.8997,5.9034,5.9062,5.9121,5.9113,5.9143,5.9128,5.9127,5.9197,5.921,5.9248,5.9267,5.9251,5.935,5.9332,5.9298,5.924,5.9342,5.9382,5.9398,5.9182,5.918,5.9179,5.9177,0,0,5.9054,5.9085,5.9102,5.9119,5.9145,5.9182,5.924,5.928,5.9307,5.9332,5.938,5.944,5.9409,5.9429,5.9415,5.9457,5.9557,5.9418,5.9418,5.9443,5.9667,5.9692,5.9711,5.9538,5.9541,5.9544,5.9665,0,5.9171,5.9273,5.9261,5.9358,5.9404,5.937,5.942,5.9441,5.9443,5.9481,5.9483,5.9526,5.9482,5.9494,5.9534,5.9536,5.9601,5.9527,5.9581,5.9583,5.9576,5.9732,5.9758,5.9872,5.9681,5.9683,5.9685,0,5.9319,5.9353,5.9455,5.9476,5.9495,5.9541,5.9577,5.9615,5.9638,5.9636,5.9661,5.964,5.9698,5.9641,5.972,5.967,5.9692,5.9696,5.97,5.9704,5.964,5.9739,5.9908,5.9925,5.9709,5.9707,5.9706,0,5.9423,5.9494,5.9565,5.958,5.9606,5.9639,5.9651,5.9671,5.9697,5.9729,5.9745,5.9782,5.9803,5.9832,5.9822,5.9781,5.9903,5.9845,5.9903,5.9903,5.9929,5.9927,6.0103,5.9944,5.9944,5.9944,5.9943,0,5.9553,5.9617,5.9612,5.9655,5.9726,5.9713,5.9783,5.979,5.9809,5.9853,5.9825,5.9866,5.9851,5.9891,5.9884,5.9951,5.996,5.996,5.9957,5.9962,5.9962,5.9975,5.9966,5.9948,5.9947,5.9946,5.9946,0,5.968,5.9679,5.9754,5.9774,5.978,5.9832,5.9848,5.9888,5.9889,5.9945,5.9957,5.9958,6.0005,5.9998,6.0049,6.0044,6.0128,6.0115,6.012,6.0117,6.0175,6.017,6.0365,6.039,6.0216,6.0218,6.0219,0,5.9763,5.9811,5.9837,5.9866,5.9881,5.9927,5.9954,5.9943,5.9972,6.0003,6.004,6.0085,6.012,6.0195,6.02,6.0239,6.0227,6.0293,6.0232,6.0237,6.0228,6.0225,6.023,6.0304,6.0306,6.0308,6.0309,0,5.991,5.9908,5.9948,5.999,6.0023,6.0055,6.0083,6.0108,6.0099,6.0133,6.0182,6.0209,6.0263,6.0307,6.0345,6.0356,6.0331,6.0329,6.0344,6.0349,6.035,6.035,6.0152,6.0323,6.0322,6.0321,6.032,6.032,6.0017,6.0059,6.0085,6.0132,6.0153,6.0181,6.022,6.0228,6.0269,6.0313,6.0304,6.0359,6.0382,6.043,6.0446,6.0488,6.0463,6.0485,6.0491,6.0496,6.0503,6.0345,6.0494,6.0494,6.0493,6.0493,6.0493,0,6.0162,6.0178,6.0222,6.0264,6.0301,6.0277,6.0308,6.034,6.0389,6.0414,6.045,6.0506,6.055,6.0559,6.0601,6.0633,6.0623,6.0644,6.0641,6.0644,6.0523,6.0505,6.0652,6.0652,6.0652,6.0652,6.0652,6.0651,6.0243,6.0314,6.0315,6.0397,6.0411,6.0467,6.0486,6.0512,6.0532,6.0597,6.0634,6.064,6.0659,6.0702,6.0741,6.0743,6.0759,6.0785,6.0782,6.0668,6.0652,6.0637,6.0621,6.0789,6.0789,6.09,6.0901,6.0902]}]]